This is the latest recevied weather packets stored in our database for station/object N3AVN. If no packets are shown the sender has not sent any weather packets the latest 10 day(s).
| Time | Temp. | Humidity | Pressure | Rain* | Wind** | Luminosity | Snow |
|---|---|---|---|---|---|---|---|
| 1777616091 | 6.11° C | 85% | 1008.4 hPa | 0 mm | - | 0 W/m² | - |
| 1777615788 | 6.11° C | 84% | 1008.2 hPa | 0 mm | - | 0 W/m² | - |
| 1777615485 | 6.67° C | 83% | 1008.3 hPa | 0 mm | - | 0 W/m² | - |
| 1777615185 | 6.67° C | 83% | 1008.7 hPa | 0 mm | - | 0 W/m² | - |
| 1777614880 | 6.67° C | 84% | 1008.5 hPa | 0 mm | - | 0 W/m² | - |
| 1777614577 | 6.67° C | 84% | 1008.4 hPa | 0 mm | - | 0 W/m² | - |
| 1777614272 | 6.67° C | 85% | 1008.6 hPa | 0 mm | - | 0 W/m² | - |
| 1777613967 | 6.67° C | 85% | 1008.7 hPa | 0 mm | - | 0 W/m² | - |
| 1777613664 | 6.67° C | 86% | 1008.5 hPa | 0 mm | - | 0 W/m² | - |
| 1777613361 | 6.11° C | 86% | 1008.8 hPa | 0 mm | - | 0 W/m² | - |
| 1777613058 | 6.11° C | 86% | 1008.8 hPa | 0 mm | - | 0 W/m² | - |
| 1777612754 | 6.67° C | 86% | 1008.7 hPa | 0 mm | - | 0 W/m² | - |
| 1777612444 | 6.67° C | 84% | 1008.6 hPa | 0 mm | - | 0 W/m² | - |
| 1777612139 | 6.67° C | 83% | 1008.5 hPa | 0 mm | - | 0 W/m² | - |
| 1777611835 | 7.22° C | 83% | 1008.7 hPa | 0 mm | - | 0 W/m² | - |
| 1777611531 | 6.67° C | 83% | 1008.8 hPa | 0 mm | - | 0 W/m² | - |
| 1777611228 | 6.67° C | 82% | 1008.7 hPa | 0 mm | - | 0 W/m² | - |
| 1777610924 | 6.67° C | 86% | 1008.8 hPa | 0 mm | - | 0 W/m² | - |
| 1777610620 | 6.67° C | 86% | 1008.5 hPa | 0 mm | - | 0 W/m² | - |
| 1777610318 | 6.67° C | 84% | 1008.4 hPa | 0 mm | - | 0 W/m² | - |
| 1777610015 | 6.67° C | 85% | 1008.3 hPa | 0 mm | - | 0 W/m² | - |
| 1777609712 | 6.67° C | 84% | 1008.3 hPa | 0 mm | - | 0 W/m² | - |
| 1777609409 | 7.22° C | 82% | 1008.1 hPa | 0 mm | - | 0 W/m² | - |
| 1777609107 | 7.78° C | 80% | 1008.1 hPa | 0 mm | - | 0 W/m² | - |
| 1777608804 | 7.78° C | 80% | 1008.2 hPa | 0 mm | - | 0 W/m² | - |
* Rain latest hour (hover to see other rain measurements)
** Current wind speed in m/s (hover to see current wind gust speed)